Content
SEND FEEDBACK

Daily
Averages
Monthly
Summary
United States of America

STATEN ISLAND, NEW YORK


Home > North America > United States > New York
Elevation: 152 feet     Latitude: 40 35N     Longitude: 074 09W

WEATHER
 
SELECT A DAY
Number of Records: 189,864;   Date Range: 1/1/95 - 9/16/14
 
SHARE

PRINT THIS DATA

[ ← Previous Day ]
WEATHER ALMANAC - JANUARY 29, 2014
[ Next Day → ]
[ °C ]   °F
Weather ElementAverageHighLow
Temperature16.7 °F21.9 °F (1:51 pm)12.9 °F (7:51 am)
Dewpoint1.6 °F9 °F (2:51 am)-4 °F (12:51 pm)
Humidity54.4 %80 % (2:51 am)32 % (2:51 pm)
Barometer30.20 in30.32 in (11:51 pm)30.12 in (2:51 pm)
Wind Speed10.2 mph19.6 mph (3:51 pm)
Wind Gust24.2 mph (3:51 pm)
Weather ElementAverage
Visibility7.9 mi
Wind DirectionW (269.3 °)

Weather ElementTotal
Precipitation0.08 in
Heating Degree Days47.6 (Base 65)
Averaged from 27 records on January 29, 2014
WEATHER CONDITIONS BREAKOUT
WIND DIRECTION BREAKOUT
WEATHER BY HOUR - JANUARY 29, 2014
[ °C ]   °F
Local TimeTemperatureDewpointHumidityBarometerVisibilityWind DirectionWind SpeedGust SpeedPrecipitationEventsConditions
1:13 AM14.0 °F6.8 °F73 %30.23 in2.0 miWest (270°)5.8 mph0.01 inSnowLight Snow
1:39 AM14.0 °F6.8 °F73 %30.23 in1.5 miWest (260°)3.5 mph0.01 inSnowLight Snow
1:51 AM14.0 °F7.0 °F74 %30.23 in1.5 miWest (260°)5.8 mph0.01 inSnowLight Snow
2:51 AM14.0 °F9.0 °F80 %30.21 in2.0 miWNW (290°)6.9 mph0.02 inSnowLight Snow
3:34 AM14.0 °F8.6 °F79 %30.19 in2.5 miWNW (290°)8.1 mph0.01 inSnowLight Snow
3:51 AM14.0 °F9.0 °F80 %30.18 in3.0 miNW (310°)8.1 mph0.01 inSnowLight Snow
4:51 AM14.0 °F9.0 °F80 %30.15 in2.5 miNW (310°)8.1 mph0.01 inSnowLight Snow
5:21 AM14.0 °F8.6 °F79 %30.16 in7.0 miWNW (300°)6.9 mph0.00 inOvercast
5:51 AM14.0 °F7.0 °F74 %30.17 in10.0 miNW (310°)10.4 mph0.00 inOvercast
6:51 AM14.0 °F6.1 °F71 %30.18 in10.0 miWNW (290°)8.1 mphOvercast
7:51 AM12.9 °F3.9 °F67 %30.19 in10.0 miWNW (300°)11.5 mphMostly Cloudy
8:51 AM12.9 °F-0.9 °F54 %30.20 in10.0 miWNW (300°)8.1 mphScattered Clouds
9:51 AM16.0 °F-2.0 °F45 %30.20 in10.0 miWNW (290°)11.5 mphScattered Clouds
10:51 AM18.0 °F-2.0 °F41 %30.19 in10.0 miWNW (290°)12.7 mphPartly Cloudy
11:51 AM19.9 °F-2.0 °F38 %30.18 in10.0 miWest (280°)12.7 mph17.3 mphPartly Cloudy
12:51 PM21.0 °F-4.0 °F33 %30.14 in10.0 miWest (270°)15.0 mphPartly Cloudy
1:51 PM21.9 °F-2.9 °F34 %30.13 in10.0 miWSW (250°)15.0 mphPartly Cloudy
2:51 PM21.9 °F-4.0 °F32 %30.12 in10.0 miWSW (250°)16.1 mphPartly Cloudy
3:51 PM21.9 °F-2.9 °F34 %30.13 in10.0 miWSW (240°)19.6 mph24.2 mphPartly Cloudy
4:51 PM21.9 °F-2.9 °F34 %30.14 in10.0 miWSW (250°)16.1 mphPartly Cloudy
5:51 PM19.9 °F-2.9 °F37 %30.19 in10.0 miWSW (250°)12.7 mph20.7 mphPartly Cloudy
6:51 PM19.0 °F-2.0 °F40 %30.22 in10.0 miSW (230°)10.4 mphClear
7:51 PM19.0 °F-2.9 °F38 %30.25 in10.0 miWSW (250°)11.5 mphClear
8:51 PM18.0 °F-2.0 °F41 %30.26 in10.0 miWSW (250°)8.1 mphClear
9:51 PM16.0 °F-2.0 °F45 %30.27 in10.0 miSW (220°)9.2 mphClear
10:51 PM15.1 °F-2.0 °F47 %30.29 in10.0 miSW (220°)6.9 mphClear
11:51 PM15.1 °F-2.0 °F47 %30.32 in10.0 miWSW (240°)6.9 mphClear
Hourly data recorded from KEWR, located miles away from Staten Island, New York







STORIES FROM OUR PARTNERS